STARLINK-35390

Satellite information

Favourite Embed

Satellite Type and Status

PAYLOADIN ORBIT

Key statistics

Satellite STARLINK-35390 at a glance.

Uptime

32

Days in orbit

Revolutions

≈ 15.4

Per day

Orbit

SSO

Sun Synchronous Orbit

Inclination

97.6

Latest

Satellite identification and parameters

Extended collection of information and parameters for STARLINK-35390.

Object identification

Identified? True

Debris? False

Object name: STARLINK-35390

International designator: 2025-218F

Object number (NORAD): 65796

Object ID (CCSDS): 65796

Country: UNITED STATES OF AMERICA (US)

Current information (Y/N): Y

Orbital parameters

Period: 93.514 minutes

Inclination: 97.6021 deg

SMA: 6824.612 km

Apoapsis: 447.878 km

Periapsis: 445.077 km

RAAN: 161.8583 deg

Eccentricy: 0.00020522

Argument of periapsis: 86.6406 deg

Mean anomaly: 120.7793 deg

Mean motion: 15.39876199 rev/day

Mean motion (dot): -0.02394326 rev/day2

B* drag term: -0.067821192 1/REarth

Two-line elements (TLE)

Creation date: Oct. 28, 2025, 2:18 a.m.

Reference frame: TEME

Reference center: EARTH

Epoch: Oct. 27, 2025, 8 p.m. UTC

TLE line 0: 0 STARLINK-35390

TLE line 1: 1 65796U 25218F 25300.83334491 -.02394326 00000-0 -67821-1 0 9992

TLE line 2: 2 65796 97.6021 161.8583 0002052 86.6406 120.7793 15.39876199 6082

Live tracking on map

Real-time ground track for satellite STARLINK-35390.

In-orbit conjunctions

There are no conjunctions computed for STARLINK-35390, at the moment. Check back to stay up to date, as we update our databases every day.

Go to all conjunctions

Associated space launch

A batch of 24 satellites for the Starlink mega-constellation - SpaceX's project for space-based Internet communication system.

STARLINK-35390 was lifted into orbit during the mission ‘Falcon 9 Block 5 | Starlink Group 17-11’, on board a Falcon 9 space rocket.

The launch took place on Sept. 26, 2025, 4:26 a.m. from Space Launch Complex 4E.

For more information about the launch, click the button.

Launch to space Falcon 9 Block 5 | Starlink Group 17-11
Falcon 9 Block 5 | Starlink Group 17-11

Agency: SpaceX

Status: Launch Successful

Launch date: Sept. 26, 2025, 4:26 a.m. UTC

Rocket: Falcon 9

Launch pad: Space Launch Complex 4E

Location: Vandenberg SFB, CA, USA

...

Latest news about this satellite

News about space launch
Live coverage: SpaceX to launch 24 Starlink satellites on Falcon 9 rocket from Vandenberg

The Starlink 17-11 mission includes the 475th launch of a flight-proven booster. SpaceX is targeting liftoff from pad 4E at Vandenberg Space Force Base at 9:17 p.m. PDT (12:17 a.m. EDT / 0417 UTC).

News about space launch
Launch Roundup: Kuiper, Starlink, IMAP headline launch manifest

A busy slate of launches is planned for the last full week of September, including… The post Launch Roundup: Kuiper, Starlink, IMAP headline launch manifest appeared first on NASASpaceFlight.com.


Newsletter sign-up

Weekly statistics, charts and insights to help you stay on top of the space industry.